Flag for Germany Weather past 2 weeks in Soltau, Lower Saxony, Germany

Now
73 °F

Partly sunny.


Feels Like: 76 °F
Forecast: 65 / 79 °F
Wind: 8 mph from Southeast

Location: Fassberg

Current Time: Aug 2, 2014 at 11:37:42 AM

Latest Report: Aug 2, 2014 at 10:20 AM


Visibility: N/A

Pressure: 29.80 "Hg

Humidity: 69%

Dew point: 63 °F

Location of SoltauLocation

Historic Weather in Soltau — Graph

°F

Soltau temperature yesterday

Maximum temperature yesterday: 79 °F (at 2:20 PM)
Minimum temperature yesterday: 52 °F (at 4:20 AM)
Average temperature yesterday: 68 °F

Past Weeks' High & Low Weather Summary

 TemperatureHumidityPressure
High88 °F (Jul 19, 1:20 PM)100% (Jul 24, 11:20 PM)30.15 "Hg (Jul 24, 11:20 PM)
Low52 °F (Jul 31, 5:20 AM)31% (Jul 19, 4:20 PM)29.74 "Hg (Jul 29, 7:20 PM)
Average70 °F72%29.95 "Hg
* Reported Jul 18 10:20 AM — Aug 2 10:20 AM, Soltau, Weather by CustomWeather, © 2014

Note: Actual official high and low records may vary slightly from our data, if they occured in-between our weather recording intervals... More about our weather records

Advertising

Soltau weather history for previous 24 hours

 ConditionsComfort  
Time TempWeatherWind HumidityBarometerVisibility
10:20 AM
Aug 2
73 °FPartly sunny.8 mph69%29.80 "HgN/A
9:20 AM72 °FPartly sunny.10 mph73%29.80 "HgN/A
8:20 AM68 °FPartly sunny.8 mph78%29.83 "HgN/A
7:20 AM63 °FPartly sunny.6 mph88%29.83 "HgN/A
6:20 AM61 °FPassing clouds.7 mph88%29.83 "HgN/A
5:20 AM59 °FPartly cloudy.6 mph94%29.83 "HgN/A
4:20 AM59 °FPassing clouds.6 mph88%29.86 "HgN/A
3:20 AM61 °FPassing clouds.6 mph88%29.86 "HgN/A
2:20 AM61 °FPassing clouds.5 mph83%29.86 "HgN/A
1:20 AM63 °FPassing clouds.2 mph77%29.86 "HgN/A
12:20 AM64 °FPassing clouds.5 mph73%29.86 "HgN/A
11:20 PM
Aug 1
66 °FPassing clouds.6 mph68%29.89 "HgN/A
10:20 PM68 °FPassing clouds.6 mph64%29.86 "HgN/A
9:20 PM72 °FPartly sunny.7 mph61%29.86 "HgN/A
8:20 PM75 °FBroken clouds.7 mph54%29.86 "HgN/A
7:20 PM77 °FPartly sunny.8 mph47%29.86 "HgN/A
6:20 PM79 °FPartly sunny.10 mph42%29.86 "HgN/A
5:20 PM79 °FPartly sunny.7 mph45%29.86 "HgN/A
4:20 PM79 °FBroken clouds.7 mph42%29.86 "HgN/A
3:20 PM79 °FBroken clouds.7 mph42%29.89 "HgN/A
2:20 PM79 °FScattered clouds.8 mph45%29.89 "HgN/A
1:20 PM77 °FScattered clouds.6 mph47%29.89 "HgN/A
12:20 PM77 °FScattered clouds.5 mph47%29.92 "HgN/A
11:20 AM77 °FScattered clouds.7 mph51%29.92 "HgN/A
Weather by CustomWeather, © 2014

See weather overviewHow to use our weather pages